Flag Weather past 2 weeks in Garbsen, Lower Saxony, Germany

Now
34 °F

Clear.


Feels Like: 26 °F
Forecast: 33 / 39 °F
Wind: 9 mph from East

Location: Hannover

Current Time: Nov 27, 2014 at 8:41:34 PM

Latest Report: Nov 27, 2014 at 8:20 PM


Visibility: 10 mi

Pressure: 29.89 "Hg

Humidity: 93%

Dew point: 32 °F

Location of GarbsenLocation

Historic Weather in Garbsen — Graph

°F

Garbsen temperature yesterday

Maximum temperature yesterday: 41 °F (at 12:20 AM)
Minimum temperature yesterday: 36 °F (at 11:50 PM)
Average temperature yesterday: 39 °F

Past Weeks' High & Low Weather Summary

 TemperatureHumidityPressure
High55 °F (Nov 23, 1:50 PM)100% (Nov 12, 10:50 PM)30.36 "Hg (Nov 12, 10:50 PM)
Low30 °F (Nov 21, 5:20 AM)63% (Nov 23, 2:50 PM)29.50 "Hg (Nov 16, 12:50 PM)
Average44 °F90%30.00 "Hg
* Reported Nov 12 7:20 PM — Nov 27 7:20 PM, Garbsen, Weather by CustomWeather, © 2014

Note: Actual official high and low records may vary slightly from our data, if they occured in-between our weather recording intervals... More about our weather records

Advertising

Garbsen weather history for previous 24 hours

 ConditionsComfort  
Time TempWeatherWind HumidityBarometerVisibility
7:20 PM
Nov 27
36 °FClear.12 mph87%29.89 "Hg10 mi
6:50 PM36 °FClear.9 mph87%29.89 "Hg10 mi
6:20 PM37 °FClear.12 mph81%29.89 "Hg10 mi
5:50 PM37 °FClear.10 mph81%29.89 "Hg10 mi
5:20 PM37 °FClear.10 mph81%29.89 "Hg10 mi
4:50 PM37 °FClear.10 mph81%29.89 "Hg10 mi
4:20 PM37 °FClear.12 mph81%29.86 "Hg10 mi
3:50 PM37 °FSunny.12 mph81%29.86 "Hg10 mi
3:20 PM39 °FSunny.10 mph75%29.86 "Hg10 mi
2:50 PM39 °FSunny.10 mph75%29.86 "Hg10 mi
2:20 PM39 °FSunny.10 mph81%29.86 "Hg10 mi
1:50 PM39 °FSunny.13 mph81%29.89 "Hg10 mi
1:20 PM39 °FSunny.13 mph81%29.89 "Hg10 mi
12:50 PM39 °FSunny.13 mph75%29.89 "Hg10 mi
12:20 PM37 °FClear.13 mph81%29.89 "Hg6 mi
11:50 AM36 °FClear.12 mph87%29.89 "Hg5 mi
11:20 AM36 °FClear.10 mph87%29.92 "Hg4 mi
10:50 AM36 °FClear.12 mph87%29.92 "Hg4 mi
10:20 AM34 °FClear.13 mph93%29.92 "Hg4 mi
9:20 AM32 °FIce fog.10 mph93%29.92 "Hg3 mi
8:50 AM32 °FIce fog.10 mph93%29.92 "Hg3 mi
8:20 AM32 °FIce fog.10 mph93%29.92 "Hg2 mi
7:50 AM32 °FIce fog.12 mph93%29.92 "Hg2 mi
7:20 AM32 °FClear.9 mph93%29.92 "Hg4 mi
6:50 AM32 °FClear.8 mph93%29.92 "Hg5 mi
6:20 AM32 °FClear.8 mph93%29.92 "Hg5 mi
5:50 AM32 °FClear.8 mph93%29.92 "Hg10 mi
5:20 AM34 °FClear.8 mph87%29.92 "Hg10 mi
4:50 AM34 °FClear.9 mph87%29.95 "Hg10 mi
4:20 AM34 °FClear.9 mph93%29.95 "Hg10 mi
3:50 AM34 °FClear.9 mph93%29.95 "Hg10 mi
3:20 AM34 °FClear.9 mph93%29.95 "Hg10 mi
2:50 AM34 °FClear.9 mph93%29.95 "Hg10 mi
2:20 AM34 °FClear.10 mph93%29.98 "Hg10 mi
1:50 AM36 °FClear.10 mph87%29.98 "Hg10 mi
1:20 AM36 °FClear.12 mph87%29.98 "Hg10 mi
12:50 AM36 °FClear.10 mph87%30.01 "Hg10 mi
12:20 AM36 °FClear.13 mph87%30.01 "Hg10 mi
11:50 PM
Nov 26
36 °FClear.12 mph87%30.01 "Hg10 mi
11:20 PM37 °FPassing clouds.14 mph81%30.01 "HgN/A
10:50 PM37 °FPassing clouds.15 mph81%30.04 "HgN/A
10:20 PM37 °FPartly cloudy.12 mph87%30.04 "HgN/A
9:50 PM39 °FPartly cloudy.15 mph81%30.04 "HgN/A
9:20 PM39 °FPartly cloudy.16 mph81%30.04 "HgN/A
8:50 PM39 °FPartly cloudy.13 mph87%30.04 "HgN/A
8:20 PM39 °FPartly cloudy.12 mph87%30.04 "HgN/A
Weather by CustomWeather, © 2014

See weather overviewHow to use our weather pages